Home > Weather > Odessa > Past weeks

Flag for U.S.A. Weather for the Past 2 Weeks in Odessa, Texas, U.S.A.

Now
42 °F

Sunny.


Feels Like: 38 °F
Forecast: 36 / 68 °F
Wind: 6 mph from West

Location: Odessa-Schlemeyer Field

Current Time: Feb 7, 2016 at 9:58:43 AM

Latest Report: Feb 7, 2016 at 8:53 AM


Visibility: 10 mi

Pressure: 30.16 "Hg (27.07 "Hg at 882m altitude)

Humidity: 30%

Dew point: 13 °F

Location of OdessaLocation

Historic Weather in Odessa — Graph

°F

Odessa Temperature Yesterday

Maximum temperature yesterday: 59 °F (at 3:53 PM)
Minimum temperature yesterday: 26 °F (at 6:53 AM)
Average temperature yesterday: 43 °F

High & Low Weather Summary for the Past Weeks

 TemperatureHumidityPressure
High79 °F (Jan 30, 2:53 PM)96% (Jan 27, 5:04 AM)30.44 "Hg (Jan 27, 5:04 AM)
Low25 °F (Feb 3, 6:53 AM)8% (Jan 30, 2:53 PM)29.37 "Hg (Feb 1, 2:53 PM)
Average47 °F43%30.03 "Hg
* Reported Jan 23 7:53 AM — Feb 7 7:53 AM, Odessa, Weather by CustomWeather, © 2016

Note: Actual official high and low records may vary slightly from our data, if they occured in-between our weather recording intervals... More about our weather records

Advertising

Odessa Weather History for the Previous 24 Hours

 ConditionsComfort  
Time TempWeatherWind HumidityBarometerVisibility
7:53 AM
Sun, Feb 7
34 °FSunny.6 mph42%30.16 "Hg10 mi
6:53 AM35 °FClear.7 mph42%30.15 "Hg10 mi
5:53 AM36 °FClear.8 mph42%30.12 "Hg10 mi
4:53 AM36 °FClear.7 mph42%30.12 "Hg10 mi
3:53 AM37 °FClear.7 mph41%30.13 "Hg10 mi
2:53 AM37 °FClear.8 mph41%30.16 "Hg10 mi
1:53 AM38 °FClear.6 mph37%30.18 "Hg10 mi
12:53 AM42 °FClear.7 mph30%30.19 "Hg10 mi
11:53 PM
Sat, Feb 6
41 °FClear.7 mph33%30.22 "Hg10 mi
10:53 PM47 °FClear.10 mph25%30.22 "Hg10 mi
9:53 PM43 °FClear.7 mph28%30.23 "Hg10 mi
8:53 PM46 °FClear.6 mph23%30.25 "Hg10 mi
7:53 PM48 °FClear.7 mph22%30.27 "Hg10 mi
6:53 PM50 °FClear.8 mph20%30.27 "Hg10 mi
5:53 PM58 °FSunny.9 mph13%30.26 "Hg10 mi
4:53 PM59 °FSunny.8 mph12%30.27 "Hg10 mi
3:53 PM59 °FSunny.No wind13%30.28 "Hg10 mi
2:53 PM58 °FSunny.7 mph14%30.30 "Hg10 mi
1:53 PM57 °FSunny.6 mph16%30.34 "Hg10 mi
12:53 PM56 °FSunny.10 mph18%30.38 "Hg10 mi
11:53 AM51 °FSunny.12 mph25%30.41 "Hg10 mi
10:53 AM47 °FSunny.6 mph33%30.43 "Hg10 mi
9:53 AM44 °FSunny.8 mph38%30.44 "Hg10 mi
Weather by CustomWeather, © 2016

See weather overviewHow to use our weather pages